Météo par heure à Kitaevka

Ce jour, 4 Mars, Jeudi

Heure Température Précipitation Vent Pression Humidité
00:00 +3°C° 0.2 mm 1 m/s 698 mmHg 95%
01:00 +3°C° 0.2 mm 1 m/s 698 mmHg 95%
02:00 +2°C° 0.2 mm 2 m/s 697 mmHg 94%
03:00 +2°C° 0.1 mm 2 m/s 697 mmHg 93%
04:00 +2°C° 0.1 mm 2 m/s 697 mmHg 93%
05:00 +3°C° 0.1 mm 2 m/s 697 mmHg 92%
06:00 +3°C° 0.1 mm 2 m/s 697 mmHg 92%
07:00 +3°C° 0.1 mm 2 m/s 697 mmHg 93%
08:00 +3°C° 0.1 mm 2 m/s 697 mmHg 94%
09:00 +3°C° 0 mm 2 m/s 696 mmHg 94%
10:00 +4°C° 0 mm 2 m/s 696 mmHg 94%
11:00 +4°C° 0 mm 2 m/s 696 mmHg 94%
12:00 +3°C° 0.4 mm 3 m/s 696 mmHg 95%
13:00 +3°C° 0.4 mm 3 m/s 696 mmHg 96%
14:00 +3°C° 0.4 mm 4 m/s 695 mmHg 97%
15:00 +3°C° 1 mm 4 m/s 695 mmHg 98%
16:00 +3°C° 1 mm 4 m/s 695 mmHg 98%
17:00 +1°C° 1 mm 4 m/s 696 mmHg 98%
18:00 +1°C° 0.9 mm 4 m/s 696 mmHg 98%
19:00 +1°C° 0.9 mm 4 m/s 696 mmHg 98%
20:00 +2°C° 0.9 mm 3 m/s 696 mmHg 98%
21:00 0°C° 2.7 mm 4 m/s 697 mmHg 98%
22:00 0°C° 2.7 mm 4 m/s 697 mmHg 98%
23:00 -1°C° 2.7 mm 4 m/s 698 mmHg 98%

Demain, 5 Mars, Vendredi

Heure Température Précipitation Vent Pression Humidité
00:00 -1°C° 1.7 mm 4 m/s 699 mmHg 98%
01:00 -1°C° 1.7 mm 3 m/s 700 mmHg 98%
02:00 -1°C° 1.7 mm 3 m/s 701 mmHg 98%
03:00 -1°C° 0.4 mm 3 m/s 702 mmHg 97%
04:00 -1°C° 0.4 mm 3 m/s 703 mmHg 97%
05:00 -3°C° 0.4 mm 4 m/s 704 mmHg 97%
06:00 -2°C° 0 mm 3 m/s 704 mmHg 96%
07:00 -2°C° 0 mm 3 m/s 705 mmHg 96%
08:00 -2°C° 0 mm 3 m/s 705 mmHg 96%
09:00 -2°C° 0 mm 2 m/s 705 mmHg 94%
10:00 -1°C° 0 mm 2 m/s 705 mmHg 92%
11:00 -1°C° 0 mm 2 m/s 705 mmHg 91%
12:00 +2°C° 0 mm 1 m/s 705 mmHg 89%
13:00 +2°C° 0 mm 1 m/s 704 mmHg 87%
14:00 +3°C° 0 mm 1 m/s 704 mmHg 85%
15:00 +2°C° 0 mm 1 m/s 703 mmHg 85%
16:00 +1°C° 0 mm 2 m/s 703 mmHg 85%
17:00 +1°C° 0 mm 2 m/s 702 mmHg 85%
18:00 -1°C° 0 mm 2 m/s 702 mmHg 86%
19:00 -2°C° 0 mm 3 m/s 701 mmHg 88%
20:00 -4°C° 0 mm 3 m/s 701 mmHg 89%
21:00 -4°C° 0 mm 3 m/s 701 mmHg 87%
22:00 -4°C° 0 mm 3 m/s 700 mmHg 85%
23:00 -4°C° 0 mm 3 m/s 700 mmHg 83%

Après-demain, 6 Mars, Samedi

Heure Température Précipitation Vent Pression Humidité
00:00 -4°C° 0 mm 3 m/s 699 mmHg 78%
01:00 -4°C° 0 mm 3 m/s 698 mmHg 73%
02:00 -4°C° 0 mm 3 m/s 698 mmHg 67%
03:00 -2°C° 0 mm 3 m/s 697 mmHg 65%
04:00 -2°C° 0 mm 3 m/s 697 mmHg 63%
05:00 -1°C° 0 mm 3 m/s 696 mmHg 61%
06:00 -1°C° 0 mm 3 m/s 696 mmHg 62%
07:00 0°C° 0 mm 3 m/s 696 mmHg 62%
08:00 0°C° 0 mm 3 m/s 695 mmHg 63%
09:00 +1°C° 0 mm 3 m/s 695 mmHg 67%
10:00 +2°C° 0 mm 3 m/s 694 mmHg 71%
11:00 +3°C° 0 mm 3 m/s 694 mmHg 75%
12:00 +3°C° 0 mm 3 m/s 693 mmHg 78%
13:00 +3°C° 0 mm 3 m/s 693 mmHg 81%
14:00 +3°C° 0 mm 3 m/s 692 mmHg 84%
15:00 +4°C° 0 mm 2 m/s 693 mmHg 83%
16:00 +3°C° 0 mm 2 m/s 693 mmHg 82%
17:00 +3°C° 0 mm 2 m/s 693 mmHg 82%
18:00 +3°C° 0 mm 2 m/s 693 mmHg 79%
19:00 +2°C° 0 mm 2 m/s 693 mmHg 76%
20:00 +3°C° 0 mm 1 m/s 693 mmHg 74%
21:00 +3°C° 0 mm 1 m/s 694 mmHg 73%
22:00 +3°C° 0 mm 1 m/s 694 mmHg 72%
23:00 +4°C° 0 mm 1 m/s 694 mmHg 71%

7 Mars, Dimanche

Heure Température Précipitation Vent Pression Humidité
00:00 +4°C° 0 mm 1 m/s 694 mmHg 74%
01:00 +3°C° 0 mm 1 m/s 694 mmHg 78%
02:00 +3°C° 0 mm 1 m/s 695 mmHg 81%
03:00 +3°C° 0.1 mm 1 m/s 695 mmHg 86%
04:00 +2°C° 0.1 mm 2 m/s 695 mmHg 90%
05:00 +1°C° 0.1 mm 2 m/s 695 mmHg 94%
06:00 +1°C° 0.6 mm 2 m/s 696 mmHg 95%
07:00 0°C° 0.6 mm 3 m/s 696 mmHg 96%
08:00 0°C° 0.6 mm 3 m/s 696 mmHg 97%
09:00 0°C° 0.7 mm 4 m/s 696 mmHg 97%
10:00 0°C° 0.7 mm 4 m/s 697 mmHg 98%
11:00 +1°C° 0.7 mm 4 m/s 697 mmHg 98%
12:00 +1°C° 0.4 mm 4 m/s 697 mmHg 97%
13:00 +1°C° 0.4 mm 5 m/s 697 mmHg 97%
14:00 +1°C° 0.4 mm 5 m/s 697 mmHg 96%
15:00 +1°C° 0.1 mm 5 m/s 697 mmHg 96%
16:00 +1°C° 0.1 mm 4 m/s 697 mmHg 96%
17:00 +1°C° 0.1 mm 4 m/s 696 mmHg 96%
18:00 +1°C° 0 mm 4 m/s 697 mmHg 97%
19:00 +1°C° 0 mm 3 m/s 697 mmHg 97%
20:00 +1°C° 0 mm 3 m/s 697 mmHg 97%
21:00 +2°C° 0 mm 2 m/s 696 mmHg 97%
22:00 +2°C° 0 mm 2 m/s 696 mmHg 96%
23:00 +2°C° 0 mm 2 m/s 696 mmHg 96%

8 Mars, Lundi

Heure Température Précipitation Vent Pression Humidité
00:00 +1°C° 0 mm 2 m/s 696 mmHg 95%
01:00 +1°C° 0 mm 2 m/s 695 mmHg 95%
02:00 +1°C° 0 mm 2 m/s 695 mmHg 94%
03:00 +1°C° 0 mm 2 m/s 695 mmHg 92%
04:00 +1°C° 0 mm 2 m/s 695 mmHg 90%
05:00 +1°C° 0 mm 2 m/s 695 mmHg 88%
06:00 +1°C° 0 mm 2 m/s 695 mmHg 86%
07:00 +2°C° 0 mm 2 m/s 695 mmHg 84%
08:00 +2°C° 0 mm 2 m/s 695 mmHg 83%
09:00 +3°C° 0 mm 2 m/s 695 mmHg 83%
10:00 +3°C° 0 mm 3 m/s 696 mmHg 84%
11:00 +4°C° 0 mm 4 m/s 696 mmHg 84%
12:00 +5°C° 0 mm 5 m/s 696 mmHg 83%
13:00 +4°C° 0 mm 6 m/s 696 mmHg 82%
14:00 +5°C° 0 mm 7 m/s 696 mmHg 81%
15:00 +5°C° 0 mm 6 m/s 696 mmHg 79%
16:00 +5°C° 0 mm 6 m/s 696 mmHg 77%
17:00 +6°C° 0 mm 5 m/s 696 mmHg 75%
18:00 +5°C° 0 mm 5 m/s 696 mmHg 76%
19:00 +5°C° 0 mm 4 m/s 697 mmHg 77%
20:00 +4°C° 0 mm 4 m/s 697 mmHg 79%
21:00 +4°C° 0 mm 4 m/s 697 mmHg 78%
22:00 +4°C° 0 mm 3 m/s 697 mmHg 77%
23:00 +4°C° 0 mm 3 m/s 697 mmHg 76%

9 Mars, Mardi

Heure Température Précipitation Vent Pression Humidité
00:00 +3°C° 0 mm 3 m/s 697 mmHg 76%
01:00 +4°C° 0 mm 2 m/s 697 mmHg 76%
02:00 +4°C° 0 mm 2 m/s 697 mmHg 76%
03:00 +4°C° 0 mm 2 m/s 697 mmHg 75%
04:00 +3°C° 0 mm 2 m/s 696 mmHg 75%
05:00 +4°C° 0 mm 1 m/s 696 mmHg 74%
06:00 +4°C° 0 mm 1 m/s 696 mmHg 73%
07:00 +4°C° 0 mm 2 m/s 696 mmHg 72%
08:00 +4°C° 0 mm 2 m/s 696 mmHg 71%
09:00 +6°C° 0 mm 1 m/s 696 mmHg 72%
10:00 +8°C° 0 mm 1 m/s 696 mmHg 73%
11:00 +9°C° 0 mm 1 m/s 696 mmHg 74%
12:00 +9°C° 0 mm 1 m/s 695 mmHg 72%
13:00 +10°C° 0 mm 1 m/s 695 mmHg 71%
14:00 +10°C° 0 mm 1 m/s 694 mmHg 70%
15:00 +10°C° 0 mm 1 m/s 694 mmHg 70%
16:00 +10°C° 0 mm 1 m/s 694 mmHg 70%
17:00 +9°C° 0 mm 1 m/s 694 mmHg 70%
18:00 +9°C° 0.1 mm 1 m/s 694 mmHg 72%
19:00 +8°C° 0.1 mm 1 m/s 694 mmHg 73%
20:00 +8°C° 0.1 mm 1 m/s 694 mmHg 74%
21:00 +7°C° 0.8 mm 1 m/s 694 mmHg 80%
22:00 +6°C° 0.8 mm 2 m/s 694 mmHg 85%
23:00 +5°C° 0.8 mm 2 m/s 694 mmHg 90%
Voir plus

Nous avons besoin de votre consentement

Meteoprog et ses fournisseurs de services peuvent stocker et accéder à des données personnelles telles que des cookies, des identifiants d'appareils ou d'autres technologies similaires sur votre appareil et traiter ces données pour personnaliser le contenu et les publicités, ainsi que pour fournir des fonctionnalités de médias sociaux et analyser le trafic.

  • Stocker et/ou accéder à des informations sur votre appareil

    Des cookies, des identifiants d'appareils ou d'autres informations peuvent être stockés ou accessibles sur votre appareil aux fins indiquées ci-dessus.

  • Annonces et contenus personnalisés, mesure des annonces et des contenus, connaissance de l'audience et développement de produits

    Les annonces et le contenu peuvent être personnalisés en fonction d'un profil. D'autres données peuvent être ajoutées pour mieux personnaliser les annonces et le contenu. Les performances des publicités et du contenu peuvent être mesurées. Il est possible d'obtenir des informations sur le public qui a vu les publicités et le contenu. Ces données peuvent être utilisées pour développer ou améliorer l'expérience de l'utilisateur, les systèmes et les logiciels.

En cliquant sur "J'accepte", vous autorisez l'utilisation de cookies, des identifiants d'appareils, des balises web ou d'autres technologies similaires. Vos paramètres peuvent être modifiés dans le navigateur de votre appareil.

Dans certains cas, des intérêts légitimes peuvent être invoqués plutôt qu'un consentement. Vous pouvez en savoir plus à ce sujet dans notre Politique de confidentialité et de cookies.